Montross, Virginia, United States (22520)
Lat: 38.09N, Lon: 76.83W
Wx Zone: VAZ075
Local Info
Past Weather Observations for Thursday, October 23, 2014

NOTE: This archive is for the closest National Weather Service station to Montross. Information may differ from the station used for current weather conditions.

Click here for Long-term Archive

Time Weather Temperature Dewpoint Humidity Pressure Winds Precip Visibility
23:52
Overcast
54°F / 12°C 46°F / 8°C 77% 29.89 in
(1012 mb)
SSW 6.9 mph
(SSW 11 kph)
- 10SM
22:52
Overcast
54°F / 12°C 46°F / 8°C 77% 29.89 in
(1012 mb)
W 5.8 mph
(W 9 kph)
- 10SM
21:52
Partly Cloudy
57°F / 14°C 46°F / 8°C 67% 29.89 in
(1012 mb)
NW 4.6 mph
(NW 7 kph)
- 10SM
20:52
Overcast
59°F / 15°C 46°F / 8°C 63% 29.89 in
(1012 mb)
NW 8.1 mph
(NW 13 kph)
- 10SM
19:52
Overcast
59°F / 15°C 45°F / 7°C 59% 29.86 in
(1011 mb)
W 11.5 mph
(W 19 kph)
- 10SM
18:52
Overcast
61°F / 16°C 45°F / 7°C 55% 29.86 in
(1011 mb)
WNW 9.2 mph
(WNW 15 kph)
- 10SM
17:52
Mostly Cloudy
61°F / 16°C 46°F / 8°C 59% 29.86 in
(1011 mb)
NW 15 mph
(NW 24 kph)
- 10SM
16:52
Mostly Cloudy
61°F / 16°C 45°F / 7°C 55% 29.83 in
(1010 mb)
WNW 17.3 mph
(WNW 28 kph)
- 10SM
15:52
Overcast
63°F / 17°C 46°F / 8°C 56% 29.83 in
(1010 mb)
NW 23 mph
(NW 37 kph)
- 10SM
14:52
Mostly Cloudy
63°F / 17°C 45°F / 7°C 52% 29.83 in
(1010 mb)
NW 25.3 mph
(NW 41 kph)
- 10SM
13:52
Mostly Cloudy
64°F / 18°C 45°F / 7°C 49% 29.8 in
(1009 mb)
NW 20.7 mph
(NW 33 kph)
- 10SM
12:52
Mostly Cloudy
64°F / 18°C 45°F / 7°C 49% 29.83 in
(1010 mb)
NW 17.3 mph
(NW 28 kph)
- 10SM
11:52
Mostly Cloudy
61°F / 16°C 45°F / 7°C 55% 29.86 in
(1011 mb)
NW 17.3 mph
(NW 28 kph)
- 10SM
10:52
Mostly Cloudy
59°F / 15°C 45°F / 7°C 59% 29.86 in
(1011 mb)
NW 20.7 mph
(NW 33 kph)
- 10SM
09:52
Mostly Cloudy
57°F / 14°C 45°F / 7°C 63% 29.86 in
(1011 mb)
NW 21.9 mph
(NW 35 kph)
- 10SM
08:52
Mostly Cloudy
55°F / 13°C 43°F / 6°C 63% 29.89 in
(1012 mb)
NW 19.6 mph
(NW 32 kph)
- 10SM
07:52
Overcast
54°F / 12°C 43°F / 6°C 67% 29.89 in
(1012 mb)
NW 18.4 mph
(NW 30 kph)
- 10SM
06:52
Overcast
54°F / 12°C 43°F / 6°C 67% 29.86 in
(1011 mb)
NW 16.1 mph
(NW 26 kph)
- 10SM
05:52
Overcast
54°F / 12°C 43°F / 6°C 67% 29.86 in
(1011 mb)
NW 25.3 mph
(NW 41 kph)
- 10SM
04:52
Overcast
54°F / 12°C 45°F / 7°C 72% 29.83 in
(1010 mb)
NW 18.4 mph
(NW 30 kph)
- 10SM
03:52
Overcast
54°F / 12°C 43°F / 6°C 67% 29.83 in
(1010 mb)
NW 21.9 mph
(NW 35 kph)
- 10SM
02:52
Overcast
54°F / 12°C 43°F / 6°C 67% 29.83 in
(1010 mb)
NW 17.3 mph
(NW 28 kph)
- 10SM
01:52
Overcast
54°F / 12°C 45°F / 7°C 72% 29.83 in
(1010 mb)
NW 24.2 mph
(NW 39 kph)
- 10SM
00:52
Overcast
54°F / 12°C 45°F / 7°C 72% 29.86 in
(1011 mb)
NW 24.2 mph
(NW 39 kph)
- 10SM
Time Weather Temperature Dewpoint Humidity Pressure Winds Precip Visibility


Weather for websites

WeatherForYou.com, LLC is not responsible for any damages or problems caused by this service. Current weather conditions are obtained from the closest station including government and personal stations which may have varying degrees of accuracy. Weather forecasts are derived from the NOAA NDFD. Like all things, this site belongs to Jesus Christ... He just trusts me to maintain it. If you have any questions or comments email webmaster@weatherforyou.com

Copyright © 2014, WeatherForYou.com LLC. All rights reserved.